TimeEST,TemperatureF,Dew PointF,Humidity,Sea Level PressureIn,VisibilityMPH,Wind Direction,Wind SpeedMPH,Gust SpeedMPH,PrecipitationIn,Events,Conditions,WindDirDegrees,DateUTC
12:53 AM,26.1,19.0,75,30.08,10.0,North,9.2,-,N/A,,Overcast,350,2013-03-02 05:53:00
1:53 AM,26.1,19.0,75,30.08,10.0,NNW,8.1,-,N/A,,Overcast,330,2013-03-02 06:53:00
2:53 AM,26.1,19.9,78,30.07,10.0,NNW,10.4,-,N/A,,Overcast,330,2013-03-02 07:53:00
3:53 AM,26.6,19.4,74,30.03,10.0,NNW,5.8,-,N/A,,Overcast,330,2013-03-02 08:53:00
4:53 AM,26.1,19.9,78,30.06,10.0,NNW,8.1,-,N/A,,Overcast,340,2013-03-02 09:53:00
5:53 AM,26.1,19.9,78,30.06,10.0,North,9.2,-,N/A,,Overcast,360,2013-03-02 10:53:00
6:53 AM,26.6,19.4,74,30.04,10.0,North,8.1,-,N/A,,Overcast,350,2013-03-02 11:53:00
7:26 AM,26.6,19.4,74,30.04,10.0,North,5.8,-,0.00,,Overcast,350,2013-03-02 12:26:00
7:53 AM,26.1,21.0,81,30.07,6.0,NNW,5.8,-,0.00,Snow,Light Snow,340,2013-03-02 12:53:00
8:04 AM,26.6,21.2,80,30.05,5.0,NNW,5.8,-,0.00,Snow,Light Snow,340,2013-03-02 13:04:00
8:53 AM,26.1,19.9,78,30.07,5.0,North,12.7,17.3,0.00,Snow,Light Snow,360,2013-03-02 13:53:00
9:22 AM,28.4,17.6,64,30.05,10.0,NNW,12.7,21.9,0.00,,Mostly Cloudy,340,2013-03-02 14:22:00
9:53 AM,28.0,19.0,69,30.07,10.0,North,10.4,-,0.00,,Overcast,350,2013-03-02 14:53:00
10:41 AM,28.4,17.6,64,30.04,10.0,North,10.4,-,N/A,,Overcast,350,2013-03-02 15:41:00
10:53 AM,28.0,19.0,69,30.07,10.0,NNW,10.4,16.1,N/A,,Overcast,340,2013-03-02 15:53:00
11:18 AM,28.4,19.4,69,30.04,10.0,NNW,9.2,18.4,N/A,,Overcast,340,2013-03-02 16:18:00
11:27 AM,28.4,19.4,69,30.04,10.0,NNW,9.2,-,N/A,,Overcast,340,2013-03-02 16:27:00
11:34 AM,28.4,19.4,69,30.04,10.0,NNW,8.1,18.4,N/A,,Overcast,340,2013-03-02 16:34:00
11:53 AM,28.9,19.0,67,30.07,10.0,NNW,11.5,-,N/A,,Overcast,330,2013-03-02 16:53:00
12:44 PM,28.4,19.4,69,30.03,10.0,North,11.5,-,N/A,,Overcast,350,2013-03-02 17:44:00
12:53 PM,28.9,19.9,69,30.06,10.0,North,12.7,-,N/A,,Overcast,350,2013-03-02 17:53:00
1:26 PM,28.4,19.4,69,30.02,9.0,North,10.4,17.3,N/A,,Overcast,360,2013-03-02 18:26:00
1:53 PM,28.0,19.9,72,30.05,10.0,NNW,10.4,19.6,0.00,,Overcast,340,2013-03-02 18:53:00
2:53 PM,27.0,19.9,75,30.06,10.0,North,10.4,17.3,N/A,,Overcast,350,2013-03-02 19:53:00
3:53 PM,27.0,19.9,75,30.06,10.0,NNW,11.5,-,N/A,,Overcast,340,2013-03-02 20:53:00
4:53 PM,26.1,18.0,71,30.06,10.0,North,8.1,-,N/A,,Overcast,350,2013-03-02 21:53:00
5:53 PM,26.1,18.0,71,30.07,10.0,North,9.2,-,N/A,,Overcast,350,2013-03-02 22:53:00
6:53 PM,25.0,18.0,75,30.08,10.0,NNW,8.1,-,N/A,,Overcast,330,2013-03-02 23:53:00
7:53 PM,24.8,17.6,74,30.06,10.0,North,9.2,18.4,N/A,,Overcast,360,2013-03-03 00:53:00
8:53 PM,25.0,15.1,66,30.08,10.0,North,9.2,-,N/A,,Overcast,350,2013-03-03 01:53:00
9:53 PM,25.0,15.1,66,30.08,10.0,North,9.2,-,N/A,,Overcast,350,2013-03-03 02:53:00
10:33 PM,24.8,14.0,64,30.05,10.0,NNW,6.9,-,N/A,,Overcast,330,2013-03-03 03:33:00
10:53 PM,24.1,14.0,65,30.07,10.0,North,8.1,-,N/A,,Overcast,350,2013-03-03 03:53:00
11:53 PM,24.1,16.0,71,30.06,10.0,NNW,5.8,-,N/A,,Overcast,340,2013-03-03 04:53:00